Location: Glencliff
(36.1226°N, 86.7183°W)
Time: 05:18:28
(UTC+00:00)

Transit 2A Rocket - Pass Details

Date: 25 August 2019
Orbit: 592 x 911 km, 66.7° (Epoch: 19 September)

Event Time Altitude Azimuth Distance (km) Brightness Sun altitude
Rises 09:36:11 0° 331° (NNW) 2,950 8.1 -18.9°
Reaches altitude 10° 09:38:32 10° 330° (NNW) 2,001 7.2 -18.5°
Maximum altitude 09:42:59 78° 246° (WSW) 619 4.4 -17.7°
Drops below altitude 10° 09:47:15 10° 159° (SSE) 1,915 7.0 -17.0°
Sets 09:49:27 0° 157° (SSE) 2,811 7.9 -16.6°
